Location: Les Jeannots
(43.2262°N, 5.5774°E)
Time: 17:19:42
(UTC+00:00)

Lacrosse 5 rocket - Pass Details

Date: 05 July 2020
Orbit: 465 x 632 km, 57.0° (Epoch: 12 August)

Event Time Altitude Azimuth Distance (km) Brightness Sun altitude
Rises 22:54:50 0° 316° (NW) 2,728 5.8 -23.2°
Reaches altitude 10° 22:57:56 10° 339° (NNW) 1,792 5.0 -23.3°
Maximum altitude 23:00:21 15° 16° (NNE) 1,460 4.2 -23.4°
Drops below altitude 10° 23:02:41 10° 53° (NE) 1,730 4.2 -23.5°
Sets 23:05:35 0° 78° (ENE) 2,578 4.8 -23.6°
